BREEZE-M DEB

Satellite information

Favourite Embed

Satellite Type and Status

DEBRISIN ORBIT

Key statistics

Satellite BREEZE-M DEB at a glance.

Uptime

6484

Days in orbit

Revolutions

≈ 3.4

Per day

Orbit

MEO

Medium Earth Orbit

Inclination

49.8

Latest

Satellite identification and parameters

Extended collection of information and parameters for BREEZE-M DEB.

Object identification

Identified? True

Debris? True

Object name: BREEZE-M DEB

International designator: 2008-011CS

Object number (NORAD): 38643

Object ID (CCSDS): 38643

Country: COMMONWEALTH OF INDEPENDENT STATES (CIS)

Current information (Y/N): Y

RCS size: MEDIUM

Orbital parameters

Period: 423.117 minutes

Inclination: 49.776 deg

SMA: 18669.555 km

Apoapsis: 24084.76 km

Periapsis: 498.08 km

RAAN: 331.2963 deg

Eccentricy: 0.63168832

Argument of periapsis: 196.7202 deg

Mean anomaly: 350.4976 deg

Mean motion: 3.40331227 rev/day

Mean motion (dot): 0.00006237 rev/day2

B* drag term: 0.020992853 1/REarth

Two-line elements (TLE)

Creation date: Dec. 11, 2025, 7:14 p.m.

Reference frame: TEME

Reference center: EARTH

Epoch: Dec. 11, 2025, 8:29 a.m. UTC

TLE line 0: 0 BREEZE-M DEB

TLE line 1: 1 38643U 08011CS 25345.35379045 .00006237 00000-0 20993-1 0 9991

TLE line 2: 2 38643 49.7760 331.2963 6316883 196.7202 350.4976 3.40331227 25015

Live tracking on map

Real-time ground track for satellite BREEZE-M DEB.

In-orbit conjunctions

A list of the most updated potential collisions computed for object BREEZE-M DEB.

Target Orbit TCA Probability of collision Miss distance Type
ARIANE 5 R/B GTO 2025-02-22 13:34:29 TBA 3547.0 (m) ROCKET BODY

Associated space launch

American communications satellite scheduled to operate in GEO, but was left stranded in a too low transfer orbit due to a launch vehicle failure. It was sold to the US Department of Defense and operated from geosynchronous orbit.

BREEZE-M DEB was lifted into orbit during the mission ‘Proton-M Briz-M | AMC 14’, on board a Proton-M Briz-M space rocket.

The launch took place on March 14, 2008, 11:18 p.m. from 200/39 (200L).

For more information about the launch, click the button.

Launch to space Proton-M Briz-M | AMC 14
Proton-M Briz-M | AMC 14

Agency: N/A

Status: Launch Failure

Launch date: March 14, 2008, 11:18 p.m. UTC

Rocket: Proton-M Briz-M

Launch pad: 200/39 (200L)

Location: Baikonur Cosmodrome, Republic of Kazakhstan

...

Latest news about this satellite

There are no fresh news available about this satellite. Check back as we update our databases every day.


Newsletter sign-up

Weekly statistics, charts and insights to help you stay on top of the space industry.